Regional Weather Roundup
Issued by NWS

Home | Current Version | Previous Version | Graphics & Text | Print | Product List | Glossary On
Versions: 1 2 3 4 5 6 7 8 9 10 11 12 13 14 15 16 17 18 19 20 21 22 23 24 25 26 27 28 29 30 31 32 33 34 35 36 37 38 39 40 41 42 43 44 45 46 47 48 49 50
000
ASUS43 KLSX 260659
RWRMO

WEATHER SUMMARY FOR MISSOURI
NATIONAL WEATHER SERVICE SPRINGFIELD MO
200 AM CDT TUE MAY 26 2015

NOTE: "FAIR" INDICATES FEW OR NO CLOUDS BELOW 12,000 FEET WITH NO
       SIGNIFICANT WEATHER AND/OR OBSTRUCTIONS TO VISIBILITY.
       CURRENT SKY AND/OR WEATHER CONDITIONS ARE NOT AVAILABLE FOR
       CHILLICOTHE AND FARMINGTON.

MOZ001>031-035>038-043-044-053-054-260800-
...NORTHERN AND WESTERN MISSOURI...

CITY           SKY/WX    TMP DP  RH WIND       PRES   REMARKS
KANSAS CTY INT DRIZZLE   61  60  97 NW7       29.83F
KANSAS C DTWN  LGT RAIN  63  60  90 NW3       29.81F
LEE`S SUMMIT   RAIN      63  61  93 CALM      29.83F FOG
ST JOSEPH      RAIN      62  61  96 S6        29.86R FOG
KIRKSVILLE     CLOUDY    70  66  87 S12       29.84F

$$
MOZ066>068-077>081-088>096-101>105-260800-
...SOUTHWEST MISSOURI...

CITY           SKY/WX    TMP DP  RH WIND       PRES   REMARKS
SPRINGFIELD    LGT RAIN  65  59  81 SW17G28   29.79F
JOPLIN         CLOUDY    64  61  90 SW17G25   29.82R

$$
MOZ032>034-039>042-045>050-055>058-069>072-260800-
...CENTRAL MISSOURI...

CITY           SKY/WX    TMP DP  RH WIND       PRES   REMARKS
COLUMBIA       RAIN      70  66  87 S15G26    29.84F
JEFFERSON CITY LGT RAIN  70  66  87 SE9       29.81F
ROLLA          LGT RAIN  67  63  87 SE12      29.86F
SEDALIA        CLOUDY    71  66  84 E7        29.80F
OSAGE BEACH    CLOUDY    70  64  83 SE12      29.80F

$$
MOZ051-052-059>065-260800-
...EAST CENTRAL MISSOURI...

CITY           SKY/WX    TMP DP  RH WIND       PRES   REMARKS
ST LOUIS INTL  CLOUDY    74  66  76 SE12G20   29.90F
SPIRIT OF STL  CLOUDY    72  68  87 VRB6      29.88F
ST CHARLES     CLOUDY    73  67  81 SE10      29.89F

$$
MOZ072>076-082>087-097>100-106>115-260800-
...SOUTH CENTRAL AND SOUTHEAST MISSOURI...

CITY           SKY/WX    TMP DP  RH WIND       PRES   REMARKS
CAPE GIRARDEAU CLOUDY    71  69  93 SE12      29.95F
FARMINGTON     CLOUDY    72  66  83 S13G18    29.96F
POPLAR BLUFF   CLOUDY    72  69  90 SE13      29.92F
WEST PLAINS    LGT RAIN  63  61  93 SE7       29.90F

$$


USA.gov is the U.S. government's official web portal to all federal, state and local government web resources and services.